Time,TemperatureF,DewpointF,PressureIn,WindDirection,WindDirectionDegrees,WindSpeedMPH,WindSpeedGustMPH,Humidity,HourlyPrecipIn,Conditions,Clouds,dailyrainin,SoftwareType,DateUTC
2013-04-18 00:02:00,44.6,44.1,30.02,NNE,22,0.0,-999.0,98,-99.99,,,0.00,Acu-Link.com,2013-04-18 07:02:00,
2013-04-18 00:17:00,44.6,44.1,30.02,NE,45,0.0,-999.0,98,-99.99,,,0.00,Acu-Link.com,2013-04-18 07:17:00,
2013-04-18 00:32:00,44.2,43.7,30.02,West,270,0.0,-999.0,98,-99.99,,,0.00,Acu-Link.com,2013-04-18 07:32:00,
2013-04-18 00:48:00,44.1,43.6,30.03,NNW,337,0.0,-999.0,98,-99.99,,,0.00,Acu-Link.com,2013-04-18 07:48:00,
2013-04-18 01:39:00,43.0,42.5,30.03,NNW,337,0.0,-999.0,98,-99.99,,,0.00,Acu-Link.com,2013-04-18 08:39:00,
2013-04-18 01:54:00,43.0,42.5,30.03,WSW,247,0.0,-999.0,98,-99.99,,,0.00,Acu-Link.com,2013-04-18 08:54:00,
2013-04-18 02:10:00,42.8,42.3,30.04,West,270,0.0,-999.0,98,-99.99,,,0.00,Acu-Link.com,2013-04-18 09:10:00,
2013-04-18 02:25:00,42.4,41.9,30.04,East,90,0.0,-999.0,98,-99.99,,,0.00,Acu-Link.com,2013-04-18 09:25:00,
2013-04-18 02:40:00,42.1,41.6,30.04,South,180,0.0,-999.0,98,-99.99,,,0.00,Acu-Link.com,2013-04-18 09:40:00,
2013-04-18 02:55:00,41.9,41.4,30.03,SSE,157,0.0,-999.0,98,-99.99,,,0.00,Acu-Link.com,2013-04-18 09:55:00,
2013-04-18 03:10:00,42.1,41.6,30.04,NNW,337,0.0,-999.0,98,-99.99,,,0.00,Acu-Link.com,2013-04-18 10:10:00,
2013-04-18 03:25:00,41.0,40.5,30.04,ENE,67,0.0,-999.0,98,-99.99,,,0.00,Acu-Link.com,2013-04-18 10:25:00,
2013-04-18 03:40:00,44.2,-50.5,30.04,ESE,112,1.1,-999.0,1,-99.99,,,0.00,Acu-Link.com,2013-04-18 10:40:00,
2013-04-18 03:55:00,48.6,-47.8,30.03,SE,135,0.0,-999.0,1,-99.99,,,0.00,Acu-Link.com,2013-04-18 10:55:00,
2013-04-18 04:10:00,50.5,3.1,30.04,NNE,22,4.2,-999.0,14,-99.99,,,0.00,Acu-Link.com,2013-04-18 11:10:00,
2013-04-18 04:26:00,50.5,-46.6,30.05,East,90,0.0,-999.0,1,-99.99,,,0.00,Acu-Link.com,2013-04-18 11:26:00,
2013-04-18 04:41:00,49.3,-47.4,30.05,SSE,157,0.0,-999.0,1,-99.99,,,0.00,Acu-Link.com,2013-04-18 11:41:00,
2013-04-18 04:56:00,49.5,-47.3,30.06,NE,45,2.7,-999.0,1,-99.99,,,0.00,Acu-Link.com,2013-04-18 11:56:00,
2013-04-18 05:26:00,51.8,51.3,30.05,ESE,112,1.1,-999.0,98,-99.99,,,0.00,Acu-Link.com,2013-04-18 12:26:00,
2013-04-18 05:41:00,53.2,52.6,30.07,ESE,112,3.2,-999.0,98,-99.99,,,0.00,Acu-Link.com,2013-04-18 12:41:00,
2013-04-18 05:56:00,53.4,52.8,30.06,East,90,0.0,-999.0,98,-99.99,,,0.00,Acu-Link.com,2013-04-18 12:56:00,
2013-04-18 06:26:00,54.1,53.5,30.08,SE,135,3.2,-999.0,98,-99.99,,,0.00,Acu-Link.com,2013-04-18 13:26:00,
2013-04-18 06:42:00,54.1,53.5,30.09,NNW,337,0.0,-999.0,98,-99.99,,,0.00,Acu-Link.com,2013-04-18 13:42:00,
2013-04-18 06:57:00,54.3,53.7,30.09,NE,45,2.2,-999.0,98,-99.99,,,0.00,Acu-Link.com,2013-04-18 13:57:00,
2013-04-18 07:12:00,55.8,55.2,30.10,East,90,1.7,-999.0,98,-99.99,,,0.00,Acu-Link.com,2013-04-18 14:12:00,
2013-04-18 07:27:00,56.7,56.1,30.11,South,180,0.0,-999.0,98,-99.99,,,0.00,Acu-Link.com,2013-04-18 14:27:00,
2013-04-18 07:42:00,61.0,60.4,30.10,NNE,22,1.7,-999.0,98,-99.99,,,0.00,Acu-Link.com,2013-04-18 14:42:00,
2013-04-18 07:57:00,65.7,65.1,30.11,NNE,22,4.2,-999.0,98,-99.99,,,0.00,Acu-Link.com,2013-04-18 14:57:00,
2013-04-18 08:12:00,67.8,67.2,30.11,NW,315,2.7,-999.0,98,-99.99,,,0.00,Acu-Link.com,2013-04-18 15:12:00,
2013-04-18 08:27:00,68.5,67.9,30.11,ESE,112,4.2,-999.0,98,-99.99,,,0.00,Acu-Link.com,2013-04-18 15:27:00,
2013-04-18 08:42:00,70.2,69.6,30.10,NNE,22,3.2,-999.0,98,-99.99,,,0.00,Acu-Link.com,2013-04-18 15:42:00,
2013-04-18 08:58:00,71.4,70.8,30.10,WSW,247,4.2,-999.0,98,-99.99,,,0.00,Acu-Link.com,2013-04-18 15:58:00,
2013-04-18 09:13:00,73.2,72.6,30.10,North,0,4.7,-999.0,98,-99.99,,,0.00,Acu-Link.com,2013-04-18 16:13:00,
2013-04-18 09:28:00,73.8,73.2,30.11,NNE,22,7.8,-999.0,98,-99.99,,,0.10,Acu-Link.com,2013-04-18 16:28:00,
2013-04-18 09:43:00,74.5,73.9,30.11,NNW,337,9.9,-999.0,98,-99.99,,,0.10,Acu-Link.com,2013-04-18 16:43:00,
2013-04-18 09:58:00,75.2,74.6,30.11,NE,45,2.7,-999.0,98,-99.99,,,0.10,Acu-Link.com,2013-04-18 16:58:00,
2013-04-18 10:13:00,76.5,75.9,30.11,NNE,22,6.3,-999.0,98,-99.99,,,0.10,Acu-Link.com,2013-04-18 17:13:00,
2013-04-18 10:28:00,78.4,77.8,30.10,NNE,22,4.7,-999.0,98,-99.99,,,0.10,Acu-Link.com,2013-04-18 17:28:00,
2013-04-18 10:43:00,78.6,78.0,30.11,NNE,22,4.7,-999.0,98,-99.99,,,0.10,Acu-Link.com,2013-04-18 17:43:00,
2013-04-18 10:58:00,78.8,78.2,30.10,West,270,9.4,-999.0,98,-99.99,,,0.10,Acu-Link.com,2013-04-18 17:58:00,
2013-04-18 11:14:00,80.1,79.5,30.10,NNE,22,4.2,-999.0,98,-99.99,,,0.10,Acu-Link.com,2013-04-18 18:14:00,
2013-04-18 11:29:00,80.2,79.6,30.10,NE,45,1.1,-999.0,98,-99.99,,,0.10,Acu-Link.com,2013-04-18 18:29:00,
2013-04-18 11:44:00,81.7,81.1,30.09,ESE,112,3.2,-999.0,98,-99.99,,,0.10,Acu-Link.com,2013-04-18 18:44:00,
2013-04-18 11:59:00,82.8,82.2,30.09,ESE,112,2.7,-999.0,98,-99.99,,,0.10,Acu-Link.com,2013-04-18 18:59:00,
2013-04-18 12:14:00,83.1,82.5,30.08,NE,45,3.7,-999.0,98,-99.99,,,0.10,Acu-Link.com,2013-04-18 19:14:00,
2013-04-18 12:29:00,81.7,81.1,30.07,NNE,22,5.8,-999.0,98,-99.99,,,0.10,Acu-Link.com,2013-04-18 19:29:00,
2013-04-18 12:44:00,82.2,81.6,30.07,East,90,1.7,-999.0,98,-99.99,,,0.10,Acu-Link.com,2013-04-18 19:44:00,
2013-04-18 13:00:00,84.4,83.8,30.06,NNE,22,5.3,-999.0,98,-99.99,,,0.10,Acu-Link.com,2013-04-18 20:00:00,
2013-04-18 13:15:00,84.2,83.6,30.07,NNE,22,5.8,-999.0,98,-99.99,,,0.10,Acu-Link.com,2013-04-18 20:15:00,
2013-04-18 13:30:00,86.9,86.3,30.05,WNW,292,3.7,-999.0,98,-99.99,,,0.10,Acu-Link.com,2013-04-18 20:30:00,
2013-04-18 13:45:00,86.2,85.6,30.05,SE,135,4.2,-999.0,98,-99.99,,,0.10,Acu-Link.com,2013-04-18 20:45:00,
2013-04-18 14:00:00,87.6,87.0,30.04,WNW,292,2.7,-999.0,98,-99.99,,,0.10,Acu-Link.com,2013-04-18 21:00:00,
2013-04-18 14:15:00,88.0,87.4,30.05,WSW,247,4.2,-999.0,98,-99.99,,,0.10,Acu-Link.com,2013-04-18 21:15:00,
2013-04-18 14:30:00,90.0,89.4,30.04,NNE,22,2.7,-999.0,98,-99.99,,,0.10,Acu-Link.com,2013-04-18 21:30:00,
2013-04-18 14:45:00,89.8,89.2,30.03,ENE,67,2.7,-999.0,98,-99.99,,,0.10,Acu-Link.com,2013-04-18 21:45:00,
2013-04-18 15:00:00,86.7,86.1,30.02,WSW,247,2.7,-999.0,98,-99.99,,,0.10,Acu-Link.com,2013-04-18 22:00:00,
2013-04-18 15:16:00,85.1,84.5,30.02,ESE,112,6.3,-999.0,98,-99.99,,,0.10,Acu-Link.com,2013-04-18 22:16:00,
2013-04-18 15:31:00,80.6,80.0,30.02,SW,225,9.4,-999.0,98,-99.99,,,0.10,Acu-Link.com,2013-04-18 22:31:00,
2013-04-18 15:46:00,81.5,80.9,30.02,WSW,247,8.3,-999.0,98,-99.99,,,0.10,Acu-Link.com,2013-04-18 22:46:00,
2013-04-18 16:01:00,78.6,78.0,30.01,NW,315,10.4,-999.0,98,-99.99,,,0.10,Acu-Link.com,2013-04-18 23:01:00,
2013-04-18 16:16:00,79.5,78.9,30.02,NW,315,8.3,-999.0,98,-99.99,,,0.10,Acu-Link.com,2013-04-18 23:16:00,
2013-04-18 16:31:00,76.3,75.7,30.02,SSW,202,11.9,-999.0,98,-99.99,,,0.10,Acu-Link.com,2013-04-18 23:31:00,
2013-04-18 16:47:00,75.7,75.1,30.02,West,270,8.9,-999.0,98,-99.99,,,0.10,Acu-Link.com,2013-04-18 23:47:00,
2013-04-18 17:02:00,74.7,74.1,30.02,SW,225,6.3,-999.0,98,-99.99,,,0.10,Acu-Link.com,2013-04-19 00:02:00,
2013-04-18 17:17:00,74.3,73.7,30.02,West,270,8.3,-999.0,98,-99.99,,,0.10,Acu-Link.com,2013-04-19 00:17:00,
2013-04-18 17:32:00,73.0,72.4,30.02,West,270,4.2,-999.0,98,-99.99,,,0.10,Acu-Link.com,2013-04-19 00:32:00,
2013-04-18 17:47:00,71.4,70.8,30.02,NW,315,5.3,-999.0,98,-99.99,,,0.10,Acu-Link.com,2013-04-19 00:47:00,
2013-04-18 18:02:00,70.7,70.1,30.03,West,270,7.8,-999.0,98,-99.99,,,0.10,Acu-Link.com,2013-04-19 01:02:00,
2013-04-18 18:17:00,69.3,68.7,30.03,South,180,7.3,-999.0,98,-99.99,,,0.10,Acu-Link.com,2013-04-19 01:17:00,
2013-04-18 18:32:00,68.4,67.8,30.03,SW,225,7.3,-999.0,98,-99.99,,,0.10,Acu-Link.com,2013-04-19 01:32:00,
2013-04-18 18:47:00,67.8,67.2,30.03,SSW,202,8.9,-999.0,98,-99.99,,,0.10,Acu-Link.com,2013-04-19 01:47:00,
2013-04-18 19:03:00,66.0,65.4,30.04,WSW,247,5.8,-999.0,98,-99.99,,,0.10,Acu-Link.com,2013-04-19 02:03:00,
2013-04-18 19:18:00,64.4,63.8,30.03,South,180,2.7,-999.0,98,-99.99,,,0.10,Acu-Link.com,2013-04-19 02:18:00,
2013-04-18 19:33:00,62.8,62.2,30.03,SSW,202,9.4,-999.0,98,-99.99,,,0.10,Acu-Link.com,2013-04-19 02:33:00,
2013-04-18 19:48:00,61.9,61.3,30.02,WSW,247,4.7,-999.0,98,-99.99,,,0.10,Acu-Link.com,2013-04-19 02:48:00,
2013-04-18 20:03:00,61.2,60.6,30.03,SW,225,3.7,-999.0,98,-99.99,,,0.10,Acu-Link.com,2013-04-19 03:03:00,
2013-04-18 20:18:00,60.6,60.0,30.04,SW,225,4.7,-999.0,98,-99.99,,,0.10,Acu-Link.com,2013-04-19 03:18:00,
2013-04-18 20:33:00,60.1,59.5,30.04,SW,225,4.2,-999.0,98,-99.99,,,0.10,Acu-Link.com,2013-04-19 03:33:00,
2013-04-18 20:48:00,59.9,59.3,30.04,SW,225,0.0,-999.0,98,-99.99,,,0.10,Acu-Link.com,2013-04-19 03:48:00,
2013-04-18 21:03:00,59.2,58.6,30.04,South,180,1.7,-999.0,98,-99.99,,,0.10,Acu-Link.com,2013-04-19 04:03:00,
2013-04-18 21:19:00,58.8,58.2,30.04,South,180,5.8,-999.0,98,-99.99,,,0.10,Acu-Link.com,2013-04-19 04:19:00,
2013-04-18 21:34:00,57.7,57.1,30.04,SSW,202,1.1,-999.0,98,-99.99,,,0.10,Acu-Link.com,2013-04-19 04:34:00,
2013-04-18 21:49:00,56.3,55.7,30.05,South,180,0.0,-999.0,98,-99.99,,,0.10,Acu-Link.com,2013-04-19 04:49:00,
2013-04-18 22:04:00,55.2,54.6,30.05,ESE,112,0.0,-999.0,98,-99.99,,,0.10,Acu-Link.com,2013-04-19 05:04:00,
2013-04-18 22:19:00,54.3,53.7,30.04,SE,135,0.0,-999.0,98,-99.99,,,0.10,Acu-Link.com,2013-04-19 05:19:00,
2013-04-18 22:34:00,53.1,52.5,30.04,NW,315,0.0,-999.0,98,-99.99,,,0.10,Acu-Link.com,2013-04-19 05:34:00,
2013-04-18 22:49:00,52.0,51.5,30.04,ESE,112,0.0,-999.0,98,-99.99,,,0.10,Acu-Link.com,2013-04-19 05:49:00,
2013-04-18 23:04:00,51.4,50.9,30.04,SSE,157,0.0,-999.0,98,-99.99,,,0.10,Acu-Link.com,2013-04-19 06:04:00,
2013-04-18 23:19:00,50.0,49.5,30.04,SSE,157,0.0,-999.0,98,-99.99,,,0.10,Acu-Link.com,2013-04-19 06:19:00,
2013-04-18 23:35:00,48.9,48.4,30.04,West,270,0.0,-999.0,98,-99.99,,,0.10,Acu-Link.com,2013-04-19 06:35:00,
2013-04-18 23:50:00,48.4,47.9,30.04,ESE,112,0.0,-999.0,98,-99.99,,,0.10,Acu-Link.com,2013-04-19 06:50:00,